Location: Observatoire
(46.1952°N, 5.3391°E)
Time: 22:58:50
(UTC+01:00)

Tiros 1 despin weight - Pass Details

Date: 23 February 2026
Orbit: 556 x 593 km, 48.2° (Epoch: 9 March)

Event Time Altitude Azimuth Distance (km) Brightness Sun altitude
Rises 13:18:04 0° 220° (SW) 2,751 ? 33.8°
Reaches altitude 10° 13:20:29 10° 211° (SSW) 1,851 ? 33.7°
Maximum altitude 13:24:17 33° 146° (SSE) 949 ? 33.6°
Drops below altitude 10° 13:28:05 10° 82° (E) 1,843 ? 33.5°
Sets 13:30:28 0° 73° (ENE) 2,738 ? 33.4°
